Weather History for Wichita Jabara, KS

Change the Weather History Date:

Sunday, January 15, 2012

  Actual Average (KICT) Record (KICT)
Temperature  
Mean Temperature 46 °F 32 °F  
Max Temperature 63 °F 42 °F 68 °F (1990)
Min Temperature 28 °F 22 °F -11 °F (1905)
Degree Days  
Heating Degree Days 20 33  
Month to date heating degree days 495  
Since 1 July heating degree days 2338  
Cooling Degree Days 0 0  
Month to date cooling degree days 0  
Year to date cooling degree days 0  
Moisture  
Dew Point 25 °F    
Average Humidity 46    
Maximum Humidity 67    
Minimum Humidity 22    
Precipitation  
Precipitation 0.00 in 0.02 in 0.70 in (1889)
Month to date precipitation 0.35  
Year to date precipitation 0.35  
Snow  
Snow 0.00 in 0.10 in 3.00 in (1978)
Month to date snowfall 1.6  
Since 1 July snowfall 7.2  
Snow Depth -    
Sea Level Pressure  
Sea Level Pressure 29.94 in    
Wind  
Wind Speed 15 mph (South)    
Max Wind Speed 26 mph    
Max Gust Speed 34 mph    
Visibility 10 miles    
Events      
T = Trace of Precipitation, MM = Missing Value Source: NWS Daily Summary

Daily Weather History Graph

Daily Weather History Graph

Search for Another Location

Airport:

Trip Planner

Search our weather history database for the weather conditions in past years. The results will help you decide how hot, cold, wet, or windy it might be!

Date:

Astronomy

Jan. 15, 2012 Rise Set
Actual Time 7:43 AM CST 5:33 PM CST
Civil Twilight 7:14 AM CST 6:02 PM CST
Nautical Twilight 6:42 AM CST 6:34 PM CST
Astronomical Twilight 6:10 AM CST 7:05 PM CST
Moon No Moon Rise 11:10 AM CST (1/15)
Length of Visible Light 10h 47m
Length of Day
9h 50m
Waning Gibbous, 57% of the Moon is Illuminated
Jan 15
Waning Gibbous
Jan 16
Last Quarter
Jan 23
New
Jan 30
First Quarter
Feb 7
Full

Hourly Weather History & Observations

Time (CST) Temp. Windchill Dew Point Humidity Pressure Visibility Wind Dir Wind Speed Gust Speed Precip Events Conditions
12:54 AM 28.9 °F 21.1 °F 19.0 °F 67% 30.17 in 10.0 mi SSE 8.1 mph - N/A   Clear
1:54 AM 34.0 °F 24.6 °F 19.9 °F 56% 30.14 in 10.0 mi South 13.8 mph - N/A   Clear
2:54 AM 34.0 °F 25.0 °F 19.9 °F 56% 30.13 in 10.0 mi South 12.7 mph - N/A   Clear
4:54 AM 33.1 °F 24.9 °F 19.9 °F 59% 30.09 in 10.0 mi SSE 10.4 mph - N/A   Clear
5:54 AM 30.0 °F 21.7 °F 19.9 °F 66% 30.08 in 10.0 mi SSE 9.2 mph - N/A   Clear
6:54 AM 32.0 °F 23.0 °F 21.0 °F 64% 30.06 in 10.0 mi South 11.5 mph - N/A   Clear
7:54 AM 34.0 °F 24.2 °F 21.9 °F 61% 30.05 in 10.0 mi South 15.0 mph - N/A   Clear
8:54 AM 39.0 °F 30.6 °F 25.0 °F 57% 30.03 in 10.0 mi South 15.0 mph - N/A   Clear
9:54 AM 45.0 °F 37.9 °F 24.1 °F 44% 30.02 in 10.0 mi South 16.1 mph - N/A   Clear
10:54 AM 51.1 °F - 24.1 °F 35% 30.00 in 10.0 mi SSW 18.4 mph - N/A   Clear
11:54 AM 55.9 °F - 24.1 °F 29% 29.96 in 10.0 mi SSW 19.6 mph 28.8 mph N/A   Clear
12:54 PM 61.0 °F - 24.1 °F 24% 29.92 in 10.0 mi SSW 24.2 mph 31.1 mph N/A   Clear
1:54 PM 63.0 °F - 24.1 °F 23% 29.88 in 10.0 mi South 18.4 mph 28.8 mph N/A   Clear
2:54 PM 62.1 °F - 23.0 °F 22% 29.86 in 10.0 mi South 23.0 mph 33.4 mph N/A   Clear
3:54 PM 59.0 °F - 23.0 °F 25% 29.84 in 10.0 mi South 24.2 mph 33.4 mph N/A   Clear
4:54 PM 57.0 °F - 24.1 °F 28% 29.83 in 10.0 mi South 16.1 mph 24.2 mph N/A   Clear
5:54 PM 55.9 °F - 24.1 °F 29% 29.83 in 10.0 mi South 19.6 mph 27.6 mph N/A   Clear
6:54 PM 52.0 °F - 27.0 °F 38% 29.85 in 10.0 mi South 17.3 mph 26.5 mph N/A   Clear
7:54 PM 50.0 °F - 28.9 °F 44% 29.84 in 10.0 mi South 19.6 mph 25.3 mph N/A   Clear
8:54 PM 50.0 °F - 30.9 °F 48% 29.81 in 10.0 mi South 18.4 mph 25.3 mph N/A   Clear
9:54 PM 52.0 °F - 34.0 °F 50% 29.77 in 10.0 mi South 26.5 mph 33.4 mph N/A   Clear
10:54 PM 52.0 °F - 39.0 °F 61% 29.74 in 10.0 mi South 24.2 mph 34.5 mph N/A   Clear
11:54 PM 52.0 °F - 41.0 °F 66% 29.72 in 10.0 mi South 24.2 mph 32.2 mph N/A   Clear